SYA2AY DTTX-DTTA

Flight info

Callsign SYA2AY
Flight time N/A
Altitude 16000
Route KADRA1A KADRA A411 ELJEM UA411 VAXAL
Aircraft B738/M-SDE2E3FGHIRWXY/LB1

Departure

Time 2026-04-13 17:56
Airport Sfax Thyna International Airport (DTTX)

Arrival

Time N/A
Airport Tunis Carthage International Airport (DTTA)
Time Latitude Longitude Altitude Speed Heading
2026-04-13 17:39 34.72314 10.69049 73 ft 0 kts 58°
2026-04-13 17:51 34.72312 10.69055 73 ft 1 kts 112°
2026-04-13 17:51 34.72293 10.69067 69 ft 4 kts 158°
2026-04-13 17:52 34.72260 10.69083 71 ft 5 kts 165°
2026-04-13 17:52 34.72191 10.69059 65 ft 15 kts 204°
2026-04-13 17:52 34.72119 10.68967 69 ft 15 kts 236°
2026-04-13 17:52 34.72089 10.68854 66 ft 14 kts 289°
2026-04-13 17:53 34.72134 10.68793 63 ft 15 kts 325°
2026-04-13 17:53 34.72281 10.68683 68 ft 22 kts 327°
2026-04-13 17:53 34.72412 10.68581 71 ft 23 kts 327°
2026-04-13 17:53 34.72541 10.68486 69 ft 18 kts 331°
2026-04-13 17:54 34.72631 10.68442 73 ft 13 kts 356°
2026-04-13 17:54 34.72660 10.68418 67 ft 2 kts 275°
2026-04-13 17:54 34.72651 10.68415 69 ft 2 kts 190°
2026-04-13 17:54 34.72635 10.68419 70 ft 3 kts 153°
2026-04-13 17:55 34.72624 10.68426 68 ft 4 kts 152°
2026-04-13 17:55 34.72510 10.68505 67 ft 51 kts 150°
2026-04-13 17:55 34.71991 10.68904 71 ft 121 kts 148°
2026-04-13 17:56 34.71128 10.69528 195 ft 163 kts 151°
2026-04-13 17:56 34.70153 10.70240 926 ft 163 kts 155°
2026-04-13 17:56 34.69003 10.70586 1370 ft 181 kts 188°
2026-04-13 17:56 34.67865 10.69898 1825 ft 199 kts 232°
2026-04-13 17:57 34.67431 10.68261 2094 ft 221 kts 274°
2026-04-13 17:57 34.68106 10.66545 2496 ft 243 kts 313°
2026-04-13 17:57 34.69694 10.65635 3043 ft 266 kts 352°
2026-04-13 17:57 34.71515 10.66076 3872 ft 278 kts 27°
2026-04-13 17:58 34.72911 10.67756 4721 ft 287 kts 62°
2026-04-13 17:58 34.73495 10.70038 5562 ft 290 kts 73°
2026-04-13 17:58 34.74542 10.72164 6314 ft 297 kts 43°
2026-04-13 17:58 34.76231 10.73557 7158 ft 296 kts 20°
2026-04-13 17:59 34.78246 10.74020 7954 ft 294 kts 356°
2026-04-13 17:59 34.79176 10.73978 8333 ft 294 kts 353°
2026-04-13 17:59 34.80428 10.73872 8830 ft 297 kts 352°
2026-04-13 17:59 34.82503 10.73640 9605 ft 302 kts 351°
2026-04-13 18:00 34.84627 10.73379 10161 ft 316 kts 350°
2026-04-13 18:00 34.86911 10.73090 10371 ft 340 kts 351°
2026-04-13 18:00 34.89314 10.72791 10909 ft 351 kts 350°
2026-04-13 18:00 34.91760 10.72496 11668 ft 355 kts 350°
2026-04-13 18:01 34.94204 10.72206 12505 ft 357 kts 350°
2026-04-13 18:01 34.96673 10.71918 13502 ft 356 kts 350°
2026-04-13 18:01 34.99183 10.71623 13976 ft 371 kts 350°
2026-04-13 18:01 35.01828 10.71308 14248 ft 391 kts 350°
2026-04-13 18:02 35.04603 10.70977 14469 ft 410 kts 351°
2026-04-13 18:02 35.07514 10.70632 14631 ft 429 kts 351°
2026-04-13 18:02 35.10538 10.70277 14768 ft 446 kts 351°
2026-04-13 18:02 35.13684 10.69910 14956 ft 459 kts 351°
2026-04-13 18:03 35.16854 10.69544 15583 ft 458 kts 351°
2026-04-13 18:03 35.20020 10.69182 15926 ft 455 kts 351°
2026-04-13 18:03 35.23129 10.68826 15831 ft 440 kts 351°
2026-04-13 18:03 35.26137 10.68482 15780 ft 430 kts 351°
2026-04-13 18:04 35.26828 10.68402 15777 ft 429 kts 351°
2026-04-13 18:04 35.27704 10.68300 15781 ft 427 kts 351°
2026-04-13 18:05 35.30662 10.67953 15786 ft 429 kts 350°
2026-04-13 18:05 35.33633 10.67601 15782 ft 430 kts 351°
2026-04-13 18:05 35.36599 10.67249 15784 ft 430 kts 351°
2026-04-13 18:05 35.39589 10.66895 15782 ft 430 kts 351°
2026-04-13 18:06 35.42531 10.66548 15777 ft 430 kts 351°
2026-04-13 18:06 35.45540 10.66193 15772 ft 429 kts 351°
2026-04-13 18:06 35.48530 10.65841 15770 ft 429 kts 351°
2026-04-13 18:06 35.51457 10.65495 15771 ft 428 kts 351°
2026-04-13 18:07 35.54460 10.65141 15766 ft 428 kts 351°
2026-04-13 18:07 35.57382 10.64795 15755 ft 427 kts 351°
2026-04-13 18:07 35.60355 10.64444 15756 ft 427 kts 351°
2026-04-13 18:07 35.63305 10.64094 15763 ft 427 kts 351°
2026-04-13 18:08 35.66270 10.63743 15759 ft 427 kts 351°
2026-04-13 18:08 35.69220 10.63393 15757 ft 427 kts 351°
2026-04-13 18:08 35.72188 10.63041 15757 ft 427 kts 351°
2026-04-13 18:08 35.75144 10.62690 15754 ft 427 kts 351°
2026-04-13 18:09 35.78107 10.62338 15746 ft 427 kts 351°
2026-04-13 18:09 35.81057 10.61987 15754 ft 427 kts 351°
2026-04-13 18:09 35.84024 10.61634 15759 ft 427 kts 351°
2026-04-13 18:09 35.86981 10.61282 15752 ft 427 kts 351°
2026-04-13 18:10 35.89914 10.60932 15428 ft 426 kts 351°
2026-04-13 18:10 35.92840 10.60584 15069 ft 421 kts 351°
2026-04-13 18:10 35.95747 10.60239 14659 ft 418 kts 351°
2026-04-13 18:10 35.98632 10.59895 14246 ft 416 kts 351°
2026-04-13 18:11 36.01508 10.59551 13823 ft 412 kts 351°
2026-04-13 18:11 36.04350 10.59211 13384 ft 410 kts 351°
2026-04-13 18:11 36.07186 10.58871 12919 ft 407 kts 351°
2026-04-13 18:11 36.09931 10.58545 12474 ft 387 kts 352°
2026-04-13 18:12 36.12544 10.58236 12191 ft 365 kts 351°
2026-04-13 18:12 36.15005 10.57945 11916 ft 346 kts 351°
2026-04-13 18:12 36.17339 10.57667 11627 ft 330 kts 351°
2026-04-13 18:12 36.19586 10.57397 11287 ft 318 kts 351°
2026-04-13 18:13 36.21756 10.57135 10958 ft 308 kts 351°
2026-04-13 18:13 36.23858 10.56881 10634 ft 298 kts 351°
2026-04-13 18:13 36.25209 10.56717 10444 ft 293 kts 351°
2026-04-13 18:13 36.27858 10.56397 10044 ft 283 kts 351°
2026-04-13 18:14 36.29798 10.56162 9843 ft 278 kts 351°
2026-04-13 18:14 36.31726 10.55927 9552 ft 280 kts 351°
2026-04-13 18:14 36.33695 10.55686 9263 ft 292 kts 351°
2026-04-13 18:14 36.35738 10.55436 8947 ft 296 kts 351°
2026-04-13 18:15 36.37769 10.55191 8609 ft 288 kts 352°
2026-04-13 18:15 36.39744 10.54955 8298 ft 280 kts 352°
2026-04-13 18:15 36.41011 10.54803 8099 ft 274 kts 352°
2026-04-13 18:15 36.42894 10.54576 7817 ft 270 kts 352°
2026-04-13 18:16 36.44761 10.54350 7536 ft 270 kts 352°
2026-04-13 18:16 36.46638 10.54029 7262 ft 276 kts 345°
2026-04-13 18:16 36.48539 10.53486 6725 ft 283 kts 343°
2026-04-13 18:16 36.50394 10.52917 6361 ft 277 kts 343°